SV1AAW Weather Reports


time (UTC)temp
F
wind
direction
speed
knots
gust
knots
rain 1hr
in
rain 24hr
in
rain mn
in
humidity
%
barometer
mb
20260508085025 72 144 2.6 5.2 0.00 0.00 0.00 35 1020.3
20260508084024 73 145 1.7 5.2 0.00 0.00 0.00 36 1020.2
20260508083024 72 204 0.0 0.9 0.00 0.00 0.00 40 1020.4
20260508082020 72 170 0.9 2.6 0.00 0.00 0.00 42 1020.4
20260508081036 72 123 0.0 1.7 0.00 0.00 0.00 40 1020.3
20260508080044 71 100 1.7 3.5 0.00 0.00 0.00 45 1020.2
20260508075019 71 128 0.9 2.6 0.00 0.00 0.00 48 1020.2
20260508074017 72 138 1.7 3.5 0.00 0.00 0.00 44 1020.0
20260508073018 72 154 1.7 3.5 0.00 0.00 0.00 43 1019.9
20260508072024 68 21 0.9 1.7 0.00 0.00 0.00 52 1019.9
20260508071017 68 327 1.7 2.6 0.00 0.00 0.00 58 1019.8
20260508070018 67 7 1.7 2.6 0.00 0.00 0.00 61 1019.6
20260508065025 67 18 1.7 1.7 0.00 0.00 0.00 63 1019.7
20260508064024 66 9 0.9 1.7 0.00 0.00 0.00 64 1019.6
20260508063020 66 18 1.7 2.6 0.00 0.00 0.00 64 1019.8
20260508062019 65 22 0.9 1.7 0.00 0.00 0.00 65 1019.7
20260508061018 66 329 0.9 1.7 0.00 0.00 0.00 66 1019.6
20260508060024 65 6 0.0 0.9 0.00 0.00 0.00 66 1019.4
20260508055023 66 12 0.9 1.7 0.00 0.00 0.00 68 1019.5
20260508054022 66 349 0.9 1.7 0.00 0.00 0.00 66 1019.5
20260508053023 65 0.0 0.0 0.00 0.00 0.00 68 1019.5
20260508052022 65 192 0.0 0.9 0.00 0.00 0.00 69 1019.5
20260508051017 65 177 0.9 1.7 0.00 0.00 0.00 68 1019.5
20260508050023 65 0.0 0.0 0.00 0.00 0.00 68 1019.6
20260508045019 65 184 0.0 0.9 0.00 0.00 0.00 68 1019.5
20260508044019 64 0.0 0.0 0.00 0.00 0.00 67 1019.5
20260508043018 64 186 0.0 0.9 0.00 0.00 0.00 67 1019.5
20260508042039 63 168 0.0 0.9 0.00 0.00 0.00 67 1019.4
20260508041025 62 0.0 0.0 0.00 0.00 0.00 67 1019.4
20260508040024 62 0.0 0.0 0.00 0.00 0.00 67 1019.4
20260508035021 62 0.0 0.0 0.00 0.00 0.00 67 1019.2
20260508034022 61 0.0 0.0 0.00 0.00 0.00 66 1019.2
20260508033023 61 0.0 0.0 0.00 0.00 0.00 65 1019.3
20260508032042 62 0.0 0.0 0.00 0.00 0.00 65 1019.3
20260508031020 61 0.0 0.0 0.00 0.00 0.00 64 1019.2
20260508030021 61 0.0 0.0 0.00 0.00 0.00 64 1019.3
20260508025019 62 0.0 0.0 0.00 0.00 0.00 62 1019.3
20260508024039 61 142 0.0 0.9 0.00 0.00 0.00 64 1019.2
20260508023018 61 0.0 0.0 0.00 0.00 0.00 64 1019.4
20260508022046 61 0.0 0.0 0.00 0.00 0.00 65 1019.5
20260508021026 61 0.0 0.0 0.00 0.00 0.00 64 1019.3
20260508020025 61 0.0 0.0 0.00 0.00 0.00 65 1019.3
20260508015023 61 0.0 0.0 0.00 0.00 0.00 66 1019.5
20260508014020 61 0.0 0.0 0.00 0.00 0.00 65 1019.4
20260508013023 62 0.0 0.0 0.00 0.00 0.00 64 1019.4
20260508012017 62 140 0.0 0.9 0.00 0.00 0.00 64 1019.4
20260508011023 63 141 0.9 1.7 0.00 0.00 0.00 65 1019.3
20260508010023 63 146 0.0 1.7 0.00 0.00 0.00 65 1019.3
20260508005022 63 198 0.9 1.7 0.00 0.00 0.00 64 1019.3
20260508004042 64 200 0.9 1.7 0.00 0.00 0.00 58 1019.2
20260508003019 63 132 0.9 2.6 0.00 0.00 0.00 58 1019.2
20260508002018 63 0.0 0.0 0.00 0.00 0.00 59 1019.3
20260508001045 64 0.0 0.0 0.00 0.00 0.00 61 1019.5
20260508000025 64 0.0 0.0 0.00 0.00 0.00 58 1019.5
20260507235020 64 0.0 0.0 0.00 0.00 0.00 58 1019.5
20260507234019 64 0.0 0.0 0.00 0.00 0.00 57 1019.5
20260507233039 64 0.0 0.0 0.00 0.00 0.00 57 1019.7
20260507232016 64 0.0 0.0 0.00 0.00 0.00 56 1019.6
20260507231042 64 0.0 0.0 0.00 0.00 0.00 56 1019.6
20260507230019 64 0.0 0.0 0.00 0.00 0.00 55 1019.5
20260507225024 64 0.0 0.0 0.00 0.00 0.00 55 1019.5
20260507224024 64 0.0 0.0 0.00 0.00 0.00 55 1019.6
20260507223038 65 0.0 0.0 0.00 0.00 0.00 55 1019.8
20260507222041 65 0.0 0.0 0.00 0.00 0.00 55 1019.8
20260507221019 65 0.0 0.0 0.00 0.00 0.00 56 1019.9
20260507220038 65 0.0 0.0 0.00 0.00 0.00 56 1019.9
20260507215018 65 0.0 0.0 0.00 0.00 0.00 56 1019.9
20260507214038 66 0.0 0.0 0.00 0.00 0.00 54 1020.0
20260507213020 66 0.0 0.0 0.00 0.00 0.00 52 1020.0
20260507212018 67 0.0 0.0 0.00 0.00 0.00 51 1020.0
20260507211036 68 346 0.0 0.9 0.00 0.00 0.00 50 1019.8
20260507210030 67 355 0.9 1.7 0.00 0.00 0.00 51 1019.9
20260507205103 68 326 0.9 1.7 0.00 0.00 0.00 50 1019.9
20260507204022 67 16 0.9 3.5 0.00 0.00 0.00 51 1019.9
20260507203020 68 347 0.9 0.9 0.00 0.00 0.00 51 1019.8
20260507202019 68 1 0.9 1.7 0.00 0.00 0.00 52 1019.7
20260507201018 68 360 0.9 1.7 0.00 0.00 0.00 51 1019.9
20260507200024 69 12 0.9 1.7 0.00 0.00 0.00 48 1019.9
20260507195021 69 353 0.9 1.7 0.00 0.00 0.00 45 1019.9
20260507194026 70 350 0.9 2.6 0.00 0.00 0.00 42 1020.1
20260507193026 71 266 0.9 1.7 0.00 0.00 0.00 41 1020.0
20260507192024 71 256 1.7 3.5 0.00 0.00 0.00 40 1019.8
20260507191020 71 269 1.7 2.6 0.00 0.00 0.00 39 1019.8
20260507190024 72 297 1.7 3.5 0.00 0.00 0.00 37 1019.7
20260507185022 71 251 1.7 6.1 0.00 0.00 0.00 38 1019.5
20260507184045 70 12 2.6 6.1 0.00 0.00 0.00 44 1019.6
20260507183040 72 14 1.7 6.1 0.00 0.00 0.00 39 1019.5
20260507182018 70 159 0.9 1.7 0.00 0.00 0.00 40 1019.4
20260507181024 69 47 0.9 2.6 0.00 0.00 0.00 55 1019.2
20260507180018 70 17 1.7 2.6 0.00 0.00 0.00 54 1019.0
20260507175024 71 19 0.0 0.9 0.00 0.00 0.00 44 1018.8
20260507174019 72 13 0.9 1.7 0.00 0.00 0.00 41 1018.8
20260507173016 72 329 0.0 0.9 0.00 0.00 0.00 37 1018.7
20260507172018 73 328 0.0 0.9 0.00 0.00 0.00 33 1018.8
20260507171026 74 316 0.9 1.7 0.00 0.00 0.00 32 1018.8
20260507170024 74 267 0.9 1.7 0.00 0.00 0.00 30 1018.8
20260507165041 74 274 0.9 2.6 0.00 0.00 0.00 30 1018.8
20260507164018 75 253 2.6 6.1 0.00 0.00 0.00 29 1018.9
20260507163038 75 241 2.6 3.5 0.00 0.00 0.00 29 1018.9
20260507162023 75 248 1.7 5.2 0.00 0.00 0.00 28 1018.8
20260507161017 75 244 2.6 5.2 0.00 0.00 0.00 29 1018.7
20260507160018 76 235 2.6 7.0 0.00 0.00 0.00 29 1018.8
20260507155018 76 232 2.6 5.2 0.00 0.00 0.00 30 1018.8
20260507154018 76 234 2.6 6.1 0.00 0.00 0.00 30 1018.7
20260507153016 76 228 2.6 6.1 0.00 0.00 0.00 30 1018.7
20260507152024 77 209 2.6 5.2 0.00 0.00 0.00 29 1018.8
20260507151022 77 222 3.5 7.8 0.00 0.00 0.00 29 1018.9
20260507150020 77 212 3.5 8.7 0.00 0.00 0.00 29 1018.9
20260507145023 77 227 4.3 9.6 0.00 0.00 0.00 30 1019.0
20260507144020 77 217 4.3 9.6 0.00 0.00 0.00 31 1019.0
20260507143019 77 205 4.3 7.8 0.00 0.00 0.00 31 1019.1
20260507142021 76 220 5.2 8.7 0.00 0.00 0.00 32 1019.1
20260507141021 76 189 4.3 8.7 0.00 0.00 0.00 34 1019.1
20260507140025 76 218 4.3 7.8 0.00 0.00 0.00 35 1019.1
20260507135020 76 236 4.3 7.8 0.00 0.00 0.00 34 1019.2
20260507134017 76 232 5.2 11.3 0.00 0.00 0.00 35 1019.3
20260507133020 77 221 5.2 11.3 0.00 0.00 0.00 36 1019.4
20260507132037 77 214 4.3 8.7 0.00 0.00 0.00 37 1019.2
20260507131024 78 208 4.3 8.7 0.00 0.00 0.00 35 1019.2
20260507130021 78 236 4.3 8.7 0.00 0.00 0.00 33 1019.2
20260507125017 79 227 4.3 8.7 0.00 0.00 0.00 33 1019.3
20260507124026 79 189 3.5 7.8 0.00 0.00 0.00 31 1019.3
20260507123019 79 185 3.5 7.0 0.00 0.00 0.00 29 1019.3
20260507122017 79 164 3.5 7.8 0.00 0.00 0.00 30 1019.3
20260507121025 78 161 3.5 7.0 0.00 0.00 0.00 34 1019.3
20260507120020 77 157 1.7 6.1 0.00 0.00 0.00 38 1019.4
20260507115045 78 116 2.6 5.2 0.00 0.00 0.00 34 1019.4
20260507114042 78 140 2.6 5.2 0.00 0.00 0.00 35 1019.4
20260507113024 78 171 3.5 7.0 0.00 0.00 0.00 31 1019.4
20260507112019 78 159 4.3 8.7 0.00 0.00 0.00 31 1019.4
20260507111018 77 164 4.3 7.8 0.00 0.00 0.00 32 1019.4
20260507110017 78 170 4.3 7.8 0.00 0.00 0.00 33 1019.5
20260507105023 76 163 3.5 7.8 0.00 0.00 0.00 36 1019.7
20260507104021 75 139 2.6 5.2 0.00 0.00 0.00 42 1019.7
20260507103017 73 131 2.6 7.8 0.00 0.00 0.00 43 1019.6
20260507102022 72 148 4.3 8.7 0.00 0.00 0.00 44 1019.6
20260507101018 72 142 5.2 9.6 0.00 0.00 0.00 45 1019.7
20260507100017 72 140 4.3 9.6 0.00 0.00 0.00 44 1019.8
20260507095023 71 131 4.3 7.8 0.00 0.00 0.00 44 1019.8
20260507094026 71 148 5.2 11.3 0.00 0.00 0.00 44 1019.8
20260507093021 70 142 4.3 8.7 0.00 0.00 0.00 45 1019.9
20260507092019 71 144 4.3 8.7 0.00 0.00 0.00 45 1019.8
20260507091017 70 147 5.2 13.0 0.00 0.00 0.00 46 1019.8
20260507090018 70 159 4.3 9.6 0.00 0.00 0.00 46 1020.0